Weather Roundup
Issued by NWS Corpus Christi, TX

Home | Current Version | Previous Version | Text Only | Print | Product List | Glossary On
Versions: 1 2 3 4 5 6 7 8 9 10 11 12 13 14 15 16 17 18 19 20 21 22 23 24 25 26 27 28 29 30 31 32 33 34 35 36 37 38 39 40 41 42 43 44 45 46 47 48 49 50
000
ASUS44 KCRP 300210
HRRCRP

SOUTH TEXAS REGIONAL WEATHER ROUNDUP
NATIONAL WEATHER SERVICE CORPUS CHRISTI TX
900 PM CDT SAT AUG 29 2015


TXZ229>244-300300-
...CORPUS CHRISTI AREA OBSERVATIONS...

CITY           SKY/WX    TMP DP  RH WIND       PRES   REMARKS
CORPUS CHRISTI PTCLDY    80  61  52 SE9       29.96S
NAS CORPUS CHR CLEAR     80  64  58 SE9       29.96S
ROCKPORT       CLEAR     83  67  58 SE9       29.96R
KINGSVILLE NAS CLEAR     79  68  69 SE8       29.97R
ALICE          CLEAR     80  65  59 SE9       29.95R
FALFURRIAS     CLEAR     79  62  55 E6        29.96R
$$

...VICTORIA AREA OBSERVATIONS...

CITY           SKY/WX    TMP DP  RH WIND       PRES   REMARKS
VICTORIA       CLEAR     79  66  64 MISG      29.98R
BEEVILLE       FAIR      79  68  69 SE7       29.97R
PLEASANTON     CLEAR     83  56  39 E3        29.95R
SAN ANTONIO    MOCLDY    84  58  40 SE8       29.97R
$$

...LAREDO AREA OBSERVATIONS...

CITY           SKY/WX    TMP DP  RH WIND       PRES   REMARKS
LAREDO         CLEAR     89  54  30 E7        29.94R
COTULLA        PTCLDY    87  56  34 SE8       29.94R
DEL RIO        CLOUDY    91  55  29 SE7       29.92R
MCALLEN        CLEAR     87  71  58 E12       29.94R HX  93
HEBBRONVILLE   NOT AVBL
$$

...OTHER TEXAS OBSERVATIONS...

CITY           SKY/WX    TMP DP  RH WIND       PRES   REMARKS
BROWNSVILLE    CLEAR     81  72  74 SE9       29.94S
HOUSTON        PTCLDY    80  65  59 S6        29.98R
COL. STATION   CLEAR     81  66  60 CALM      29.97R
AUSTIN         MOCLDY    85  61  44 SE6       29.96R
WACO           MOCLDY    88  63  43 S5        29.96R
FORT WORTH     CLOUDY    87  62  43 SW12      29.95R
WICHITA FALLS  MOCLDY    86  55  34 W13       29.94S
LUBBOCK        MOCLDY    76  52  43 SW8       30.09F
EL PASO        MOCLDY    87  54  32 SE14      30.06R
$$

...MARINE OBSERVATIONS...

STATION/POSITION TIME  SKY/WX   TEMP    WIND        PRES    VSBY  WAVE   SWELL
                                AIR SEA DIR/SP/G                  HT/PER HT/PER
                 (UTC)          (F)     (DEG/KT/KT) (MB)    (MI)  (FT/S) (FT/S)
PORT ARANSAS     0200            83 87  100/ 10/ 11 1015.8R
BUOY 90 E PORT A 0150            83 85  110/ 12/ 16 1014.8R         2/ 3
BUOY 45 SE BAFFI 0150            84 85  130/ 10/ 12 1014.1R         1/ 5
BUOY 200 E PT IS 0150            85 86   60/ 10/ 12 1014.9R         1/ 4   2/ 4
BUOY 15 E GALVES 0150            84 86  120/  6/  8 1015.2R         1
$$


USA.gov is the U.S. government's official web portal to all federal, state and local government web resources and services.